{"data":{"norad_id":61977,"epoch":"2026-09-20T23:18:03.556800Z","epoch_age_seconds":144949,"freshness":"FRESH","line1":"1 61977U 24210U   26263.97087450  .00013172  00000+0  48716-3 0  9990","line2":"2 61977  42.9986 157.1497 0000849 237.9048 122.1721 15.27592014104780","mean_motion":15.27592014,"eccentricity":8.49e-5,"inclination_deg":42.9986,"raan_deg":157.1497,"arg_perigee_deg":237.9048,"mean_anomaly_deg":122.1721,"bstar":0.00048716,"rev_number":10478,"period_min":94.266007337218,"perigee_km":482.43061039205,"apogee_km":483.59563368277,"semimajor_km":6861.1501220374,"source":"CELESTRAK","updated_at":"2026-09-22T09:00:49.480768Z"}}